Weather History for KJBR - August, 2013

Change the Weather History Date:

Thursday, August 29, 2013

  Actual Average Record
Temperature  
Mean Temperature 87 °F 78 °F  
Max Temperature 97 °F 88 °F 103 °F (1990)
Min Temperature 76 °F 68 °F 50 °F (1986)
Degree Days  
Heating Degree Days 0 0  
Month to date heating degree days 0 0  
Since 1 June heating degree days 0 1  
Since 1 July heating degree days 0 0  
Cooling Degree Days 22 13  
Month to date cooling degree days 422 435  
Year to date cooling degree days 1556 1522  
Since 1 June cooling degree days 1326 1309  
Growing Degree Days 36 (Base 50)    
Moisture  
Dew Point 70 °F    
Average Humidity 63    
Maximum Humidity 87    
Minimum Humidity 38    
Precipitation  
Precipitation 0.00 in 0.09 in 2.54 in (1931)
Month to date precipitation 3.72 2.37  
Year to date precipitation 37.45 30.94  
Snow  
Snow 0.00 in 0.00 in - ()
Month to date snowfall 0.0 0.0  
Since 1 June snowfall 0.0 0.0  
Since 1 July snowfall 0.0 0.0  
Snow Depth 0.00 in    
Sea Level Pressure  
Sea Level Pressure 30.01 in    
Wind  
Wind Speed 3 mph (WNW)    
Max Wind Speed 10 mph    
Max Gust Speed 13 mph    
Visibility 10 miles    
Events      
T = Trace of Precipitation, MM = Missing Value Source: NWS Daily Summary

Daily Weather History Graph

Daily Weather History Graph

Search for Another Location

Airport or City:

Trip Planner

Search our weather history database for the weather conditions in past years. The results will help you decide how hot, cold, wet, or windy it might be!

Date:

Astronomy

Aug. 29, 2013 Rise Set
Actual Time 6:32 AM CDT 7:33 PM CDT
Civil Twilight 6:06 AM CDT 8:00 PM CDT
Nautical Twilight 5:34 AM CDT 8:31 PM CDT
Astronomical Twilight 5:02 AM CDT 9:03 PM CDT
Moon 12:29 AM CDT (8/29) 2:56 PM CDT (8/29)
Length of Visible Light 13h 53m
Length of Day
13h 01m
Last Quarter, 38% of the Moon is Illuminated
Aug 29
Last Quarter
Sep 5
New
Sep 12
First Quarter
Sep 19
Full
Sep 26
Last Quarter

Hourly Weather History & Observations

Time (CDT) Temp. Heat Index Dew Point Humidity Pressure Visibility Wind Dir Wind Speed Gust Speed Precip Events Conditions
12:53 AM 78.1 °F - 68.0 °F 71% 30.03 in 10.0 mi WSW 4.6 mph - N/A   Clear
1:53 AM 78.1 °F - 69.1 °F 74% 30.02 in 10.0 mi WSW 3.5 mph - N/A   Scattered Clouds
2:53 AM 78.1 °F - 68.0 °F 71% 30.02 in 10.0 mi WSW 4.6 mph - N/A   Partly Cloudy
3:53 AM 79.0 °F - 66.9 °F 66% 30.01 in 10.0 mi West 6.9 mph - N/A   Clear
4:53 AM 78.1 °F - 68.0 °F 71% 30.01 in 10.0 mi West 5.8 mph - N/A   Clear
5:53 AM 77.0 °F - 68.0 °F 74% 30.03 in 10.0 mi West 4.6 mph - N/A   Clear
6:53 AM 78.1 °F - 68.0 °F 71% 30.04 in 10.0 mi West 5.8 mph - N/A   Clear
7:53 AM 81.0 °F 84.1 °F 69.1 °F 67% 30.05 in 10.0 mi WNW 5.8 mph - N/A   Clear
8:53 AM 84.9 °F 88.2 °F 68.0 °F 57% 30.06 in 10.0 mi WNW 8.1 mph - N/A   Clear
9:53 AM 89.1 °F 93.7 °F 69.1 °F 52% 30.05 in 10.0 mi NW 8.1 mph - N/A   Clear
10:53 AM 91.9 °F 98.4 °F 71.1 °F 50% 30.05 in 10.0 mi NW 6.9 mph - N/A   Clear
11:53 AM 95.0 °F 102.5 °F 71.1 °F 46% 30.05 in 10.0 mi NNW 6.9 mph - N/A   Clear
12:53 PM 93.0 °F 97.9 °F 69.1 °F 45% 30.03 in 10.0 mi Variable 3.5 mph - N/A   Scattered Clouds
1:53 PM 96.1 °F 99.9 °F 66.9 °F 38% 30.01 in 10.0 mi Calm Calm - N/A   Clear
2:53 PM 93.9 °F 100.3 °F 70.0 °F 46% 29.99 in 10.0 mi NW 5.8 mph - N/A   Mostly Cloudy
3:53 PM 96.1 °F 102.9 °F 70.0 °F 43% 29.98 in 10.0 mi NNW 4.6 mph - N/A   Clear
4:53 PM 96.1 °F 101.6 °F 69.1 °F 41% 29.97 in 10.0 mi Calm Calm - N/A   Clear
5:53 PM 96.1 °F 101.6 °F 69.1 °F 41% 29.97 in 10.0 mi Calm Calm - N/A   Clear
6:53 PM 91.9 °F 100.7 °F 73.0 °F 54% 29.97 in 10.0 mi Calm Calm - N/A   Clear
7:53 PM 82.0 °F 86.7 °F 72.0 °F 71% 29.97 in 10.0 mi Calm Calm - N/A   Clear
8:53 PM 79.0 °F - 72.0 °F 79% 29.98 in 10.0 mi Calm Calm - N/A   Clear
9:53 PM 78.1 °F - 72.0 °F 81% 29.98 in 10.0 mi Calm Calm - N/A   Clear
10:53 PM 78.1 °F - 72.0 °F 81% 29.98 in 10.0 mi Calm Calm - N/A   Clear
11:53 PM 75.9 °F - 72.0 °F 87% 29.98 in 10.0 mi Calm Calm - N/A   Clear